Home > Weather > Khabarovsk > Past weeks

Flag for Russia Past Weather in Khabarovsk, Russia — Yesterday and Last 2 Weeks

Now
50 °F

Scattered clouds.


Feels Like: 48 °F
Forecast: 47 / 70 °F
Wind: 6 mph from Northwest

Location: Habarovsk

Current Time: May 27, 2016 at 6:35:43 PM

Latest Report: May 27, 2016 at 6:00 PM


Visibility: N/A

Pressure: 29.53 "Hg

Humidity: 76%

Dew Point: 43 °F

Location of KhabarovskLocation

Past Weather in Khabarovsk — Graph

°F

Khabarovsk Temperature Yesterday

Maximum temperature yesterday: 70 °F (at 4:30 PM)
Minimum temperature yesterday: 52 °F (at 1:30 AM)
Average temperature yesterday: 60 °F

High & Low Weather Summary for the Past Weeks

 TemperatureHumidityPressure
High86 °F (May 20, 2:00 PM)100% (May 15, 7:00 PM)30.15 "Hg (May 15, 7:00 PM)
Low39 °F (May 18, 5:30 AM)16% (May 22, 1:30 PM)29.27 "Hg (May 16, 6:00 PM)
Average59 °F61%29.74 "Hg
* Reported May 12 5:00 PM — May 27 5:30 PM, Khabarovsk, Weather by CustomWeather, © 2016

Note: Actual official high and low records may vary slightly from our data, if they occured in-between our weather recording intervals... More about our weather records

Advertising

Khabarovsk Weather History for the Previous 24 Hours

Scroll right to see more
 ConditionsComfort  
Time TempWeatherWind HumidityBarometerVisibility
5:30 PM
Fri, May 27
50 °FScattered clouds.3 mph82%29.53 "HgN/A
5:00 PM50 °FScattered clouds.10 mph82%29.53 "HgN/A
4:30 PM52 °FSprinkles. Scattered clouds.13 mph58%29.53 "HgN/A
4:00 PM59 °FSprinkles. Scattered clouds.29 mph34%29.50 "HgN/A
3:30 PM63 °FScattered clouds.26 mph32%29.47 "HgN/A
3:00 PM59 °FScattered clouds.26 mph34%29.47 "HgN/A
2:30 PM61 °FScattered clouds.22 mph36%29.47 "HgN/A
2:00 PM63 °FScattered clouds.26 mph34%29.47 "HgN/A
1:30 PM61 °FScattered clouds.26 mph36%29.47 "HgN/A
1:00 PM61 °FScattered clouds.20 mph39%29.47 "HgN/A
12:30 PM59 °FScattered clouds.20 mph45%29.47 "HgN/A
12:00 PM61 °FScattered clouds.17 mph48%29.47 "HgN/A
11:30 AM55 °FScattered clouds.10 mph59%29.50 "HgN/A
11:00 AM57 °FScattered clouds.17 mph55%29.50 "HgN/A
10:30 AM57 °FScattered clouds.20 mph59%29.50 "HgN/A
10:00 AM54 °FScattered clouds.20 mph67%29.53 "HgN/A
9:30 AM54 °FScattered clouds.17 mph63%29.53 "HgN/A
9:00 AM55 °FPassing clouds.20 mph63%29.50 "HgN/A
8:30 AM55 °FPassing clouds.20 mph63%29.50 "HgN/A
8:00 AM54 °FSunny.17 mph67%29.50 "Hg10 mi
7:30 AM54 °FPassing clouds.17 mph67%29.50 "HgN/A
7:00 AM52 °FPassing clouds.20 mph67%29.50 "HgN/A
6:30 AM52 °FPassing clouds.22 mph67%29.50 "HgN/A
6:00 AM50 °FPassing clouds.15 mph71%29.50 "HgN/A
5:30 AM50 °FPassing clouds.10 mph71%29.50 "HgN/A
5:00 AM48 °FPassing clouds.8 mph82%29.50 "HgN/A
4:30 AM50 °FPassing clouds.8 mph76%29.50 "HgN/A
4:00 AM50 °FPassing clouds.15 mph76%29.50 "HgN/A
3:30 AM50 °FPassing clouds.15 mph76%29.50 "HgN/A
3:00 AM50 °FPassing clouds.10 mph76%29.50 "HgN/A
2:30 AM50 °FPassing clouds.22 mph76%29.50 "HgN/A
2:00 AM52 °FSprinkles. Passing clouds.20 mph82%29.47 "HgN/A
1:30 AM52 °FSprinkles. Passing clouds.20 mph88%29.47 "HgN/A
1:00 AM52 °FSprinkles. Passing clouds.26 mph94%29.45 "Hg3 mi
12:30 AM55 °FSprinkles. Passing clouds.20 mph88%29.42 "HgN/A
12:00 AM57 °FPassing clouds.17 mph82%29.42 "HgN/A
11:30 PM
Thu, May 26
57 °FPassing clouds.13 mph77%29.42 "HgN/A
11:00 PM57 °FPassing clouds.10 mph82%29.42 "HgN/A
10:30 PM57 °FPassing clouds.13 mph77%29.42 "HgN/A
10:00 PM59 °FPassing clouds.17 mph68%29.45 "HgN/A
9:30 PM61 °FSprinkles. Passing clouds.22 mph68%29.45 "HgN/A
9:00 PM66 °FSprinkles. Passing clouds.15 mph52%29.42 "HgN/A
8:30 PM66 °FPassing clouds.6 mph60%29.39 "HgN/A
8:00 PM66 °FPassing clouds.3 mph60%29.36 "HgN/A
7:30 PM68 °FPassing clouds.6 mph53%29.39 "HgN/A
7:00 PM70 °FPassing clouds.3 mph50%29.39 "HgN/A
6:30 PM70 °FPassing clouds.6 mph50%29.39 "HgN/A
6:00 PM70 °FPassing clouds.13 mph50%29.39 "HgN/A
Weather by CustomWeather, © 2016

See weather overviewHow to use our weather pages